Weather History for Idaho Falls, ID

Change the Weather History Date:

Wednesday, November 21, 2012

  Actual Average Record
Temperature  
Mean Temperature 43 °F 30 °F  
Max Temperature 52 °F 39 °F 56 °F (1974)
Min Temperature 33 °F 20 °F -1 °F (1957)
Degree Days  
Heating Degree Days 22 36  
Month to date heating degree days 543 638  
Since 1 July heating degree days 1306 1560  
Cooling Degree Days 0 0  
Month to date cooling degree days 0 0  
Year to date cooling degree days 444 264  
Moisture  
Dew Point 33 °F    
Average Humidity 70    
Maximum Humidity 89    
Minimum Humidity 50    
Precipitation  
Precipitation 0.03 in 0.04 in 0.30 in (1963)
Month to date precipitation 0.47 0.60  
Year to date precipitation 5.65 9.25  
Sea Level Pressure  
Sea Level Pressure 29.95 in    
Wind  
Wind Speed 15 mph (SW)    
Max Wind Speed 35 mph    
Max Gust Speed 47 mph    
Visibility 10 miles    
Events Rain    
T = Trace of Precipitation, MM = Missing Value Source: NWS Daily Summary

Daily Weather History Graph

Daily Weather History Graph

Search for Another Location

Airport:

Trip Planner

Search our weather history database for the weather conditions in past years. The results will help you decide how hot, cold, wet, or windy it might be!

Date:

Astronomy

Nov. 21, 2012 Rise Set
Actual Time 7:30 AM MST 4:57 PM MST
Civil Twilight 6:58 AM MST 5:29 PM MST
Nautical Twilight 6:23 AM MST 6:04 PM MST
Astronomical Twilight 5:49 AM MST 6:38 PM MST
Moon 1:26 PM MST (11/21) 12:42 AM MST (11/21)
Length of Visible Light 10h 30m
Length of Day
9h 27m
Waxing Gibbous, 62% of the Moon is Illuminated
Nov 21
Waxing Gibbous
Nov 28
Full
Dec 6
Last Quarter
Dec 13
New
Dec 19
First Quarter

Hourly Weather History & Observations

Time (MST) Temp. Windchill Dew Point Humidity Pressure Visibility Wind Dir Wind Speed Gust Speed Precip Events Conditions
12:53 AM 42.1 °F 39.2 °F 30.9 °F 65% 29.94 in 10.0 mi SSW 4.6 mph - N/A   Clear
1:53 AM 36.0 °F 33.3 °F 32.0 °F 86% 29.93 in 10.0 mi NNE 3.5 mph - N/A   Clear
2:53 AM 37.0 °F 34.5 °F 30.0 °F 76% 29.91 in 10.0 mi SW 3.5 mph - N/A   Clear
3:53 AM 45.0 °F 39.7 °F 30.9 °F 58% 29.89 in 10.0 mi SW 10.4 mph - N/A   Scattered Clouds
4:53 AM 46.0 °F 41.0 °F 30.9 °F 56% 29.89 in 10.0 mi SW 10.4 mph - N/A   Mostly Cloudy
5:53 AM 41.0 °F 37.1 °F 32.0 °F 70% 29.91 in 10.0 mi SW 5.8 mph - N/A   Mostly Cloudy
6:53 AM 42.1 °F 37.1 °F 32.0 °F 67% 29.90 in 10.0 mi West 8.1 mph - N/A   Overcast
7:53 AM 42.1 °F 37.7 °F 30.9 °F 65% 29.91 in 10.0 mi WSW 6.9 mph - N/A   Mostly Cloudy
8:53 AM 46.9 °F - 32.0 °F 56% 29.88 in 10.0 mi SSE 5.8 mph - N/A   Mostly Cloudy
9:53 AM 51.1 °F - 33.1 °F 50% 29.88 in 10.0 mi SW 20.7 mph 40.3 mph 0.00 in   Overcast
10:53 AM 51.1 °F - 33.1 °F 50% 29.90 in 10.0 mi SSW 16.1 mph 24.2 mph N/A   Overcast
11:53 AM 50.0 °F - 37.9 °F 63% 29.90 in 10.0 mi SW 16.1 mph - 0.00 in   Overcast
12:53 PM 46.0 °F 39.3 °F 39.0 °F 76% 29.91 in 10.0 mi SSW 16.1 mph - 0.00 in   Mostly Cloudy
1:53 PM 48.0 °F - 36.0 °F 63% 29.92 in 10.0 mi SSW 18.4 mph 26.5 mph N/A   Overcast
2:53 PM 48.0 °F - 37.9 °F 68% 29.90 in 10.0 mi SSW 23.0 mph 29.9 mph 0.02 in   Mostly Cloudy
3:53 PM 46.0 °F 37.6 °F 37.9 °F 73% 29.91 in 10.0 mi SW 24.2 mph 29.9 mph 0.00 in Rain Light Rain
4:53 PM 44.1 °F 35.9 °F 36.0 °F 73% 29.91 in 10.0 mi SSW 19.6 mph - 0.01 in   Mostly Cloudy
5:53 PM 44.1 °F 36.8 °F 36.0 °F 73% 29.97 in 10.0 mi SSW 16.1 mph 21.9 mph N/A   Mostly Cloudy
6:53 PM 42.1 °F 32.8 °F 36.0 °F 79% 29.99 in 10.0 mi SW 21.9 mph - N/A   Mostly Cloudy
7:53 PM 41.0 °F 29.8 °F 33.1 °F 73% 30.00 in 10.0 mi SSW 29.9 mph 36.8 mph N/A   Overcast
8:53 PM 37.9 °F 26.6 °F 30.9 °F 76% 30.05 in 10.0 mi SW 25.3 mph 34.5 mph N/A   Overcast
9:53 PM 35.1 °F 23.3 °F 28.9 °F 78% 30.09 in 10.0 mi SW 23.0 mph 33.4 mph N/A   Partly Cloudy
10:53 PM 34.0 °F 22.4 °F 28.0 °F 79% 30.11 in 10.0 mi SW 20.7 mph 26.5 mph N/A   Partly Cloudy
11:53 PM 33.1 °F 23.0 °F 28.0 °F 82% 30.15 in 10.0 mi WSW 15.0 mph 21.9 mph N/A   Clear